Flag for Poland Weather past 2 weeks in Jastrzębie Zdrój, Poland

Now
42 °F

Overcast.


Feels Like: 35 °F
Forecast: 36 / 40 °F
Wind: 12 mph from Southwest

Location: Ostrava / Mosnov

Current Time: Dec 20, 2014 at 7:18:34 PM

Latest Report: Dec 20, 2014 at 6:00 PM


Visibility: 13 mi

Pressure: 29.98 "Hg

Humidity: 62%

Dew point: 29 °F

Location of Jastrzębie ZdrójLocation

Historic Weather in Jastrzębie Zdrój — Graph

°F

Jastrzębie Zdrój temperature yesterday

Maximum temperature yesterday: 53 °F (at 3:00 PM)
Minimum temperature yesterday: 48 °F (at 12:00 AM)
Average temperature yesterday: 51 °F

Past Weeks' High & Low Weather Summary

 TemperatureHumidityPressure
High53 °F (Dec 19, 3:00 PM)99% (Dec 9, 4:00 AM)30.44 "Hg (Dec 9, 4:00 AM)
Low26 °F (Dec 10, 3:00 AM)50% (Dec 12, 3:00 PM)29.81 "Hg (Dec 12, 11:00 PM)
Average39 °F85%30.06 "Hg
* Reported Dec 5 6:00 PM — Dec 20 6:00 PM, Jastrzębie Zdrój, Weather by CustomWeather, © 2014

Note: Actual official high and low records may vary slightly from our data, if they occured in-between our weather recording intervals... More about our weather records

Advertising

Jastrzębie Zdrój weather history for previous 24 hours

 ConditionsComfort  
Time TempWeatherWind HumidityBarometerVisibility
6:00 PM
Dec 20
42 °FOvercast.12 mph62%29.98 "Hg12 mi
5:00 PM43 °FOvercast.12 mph61%29.98 "Hg12 mi
4:10 PM42 °FOvercast.9 mph67%30.00 "Hg19 mi
3:00 PM42 °FOvercast.10 mph66%30.02 "Hg31 mi
2:00 PM44 °FPartly sunny.7 mph60%30.05 "Hg31 mi
1:00 PM43 °FPartly sunny.9 mph62%30.07 "Hg31 mi
12:00 PM42 °FPartly sunny.10 mph68%30.11 "Hg25 mi
11:00 AM42 °FPartly sunny.9 mph70%30.14 "Hg25 mi
10:00 AM41 °FScattered clouds.10 mph65%30.13 "Hg25 mi
9:00 AM41 °FPartly sunny.7 mph69%30.12 "Hg25 mi
8:00 AM39 °FPassing clouds.10 mph74%30.12 "Hg25 mi
7:00 AM40 °FPassing clouds.9 mph72%30.09 "Hg19 mi
6:00 AM42 °FPassing clouds.8 mph70%30.07 "Hg19 mi
5:00 AM44 °FOvercast.7 mph80%30.04 "Hg19 mi
4:00 AM44 °FOvercast.7 mph81%30.01 "Hg16 mi
3:00 AM45 °FOvercast.7 mph80%30.00 "Hg16 mi
2:00 AM46 °FOvercast.7 mph78%29.98 "Hg16 mi
1:00 AM45 °FLight rain. Overcast.N/A90%29.94 "Hg12 mi
12:00 AM50 °FOvercast.7 mph80%29.91 "Hg12 mi
11:00 PM
Dec 19
50 °FOvercast.9 mph79%29.90 "Hg16 mi
9:00 PM51 °FOvercast.9 mph73%29.90 "Hg16 mi
8:00 PM52 °FOvercast.10 mph70%29.89 "Hg19 mi
7:00 PM52 °FOvercast.9 mph69%29.88 "Hg19 mi
Weather by CustomWeather, © 2014

See weather overviewHow to use our weather pages